STARLINK-35337

Last updated on Mon Oct 20 2025 00:02:07 GMT+0000 (Coordinated Universal Time)

1 65831U 25221J 25292.25002315 -.01555727 00000+0 -28580-1 0 9990 2 65831 53.1604 27.8411 0001157 89.0310 243.5290 15.51581582 4439
UTC large
Height (km)
Speed (km/s)
/
Latitude / Longitude
Inclination (degrees)
Orbital Period (minutes)
Azimuth
Elevation
Range (km)
Doppler Factor

Next 0 passes for location: London (51.5072 / 0.1276)

Sorry there are no passes over London.